| time (UTC) | temp F | wind direction | speed knots | gust knots | rain 1hr in | rain 24hr in | rain mn in | humidity % | barometer mb |
| 20260906215503 | 65 | 351 | 1.7 | 7.8 | 0.00 | 0.01 | 0.01 | 53 | 1019.1 |
| 20260906215003 | 65 | 344 | 2.6 | 6.1 | 0.00 | 0.01 | 0.01 | 52 | 1019.0 |
| 20260906214503 | 66 | 348 | 3.5 | 7.8 | 0.00 | 0.01 | 0.01 | 52 | 1019.0 |
| 20260906214214 | 66 | 355 | 4.3 | 7.8 | 0.00 | 0.01 | 0.01 | 52 | 1019.1 |
| 20260906213503 | 66 | 350 | 3.5 | 9.6 | 0.00 | 0.01 | 0.01 | 51 | 1019.1 |
| 20260906213003 | 66 | 355 | 3.5 | 9.6 | 0.00 | 0.01 | 0.01 | 50 | 1019.2 |
| 20260906212713 | 66 | 350 | 3.5 | 9.6 | 0.00 | 0.01 | 0.01 | 51 | 1019.1 |
| 20260906212214 | 66 | 347 | 4.3 | 10.4 | 0.00 | 0.01 | 0.01 | 50 | 1019.2 |
| 20260906211503 | 66 | 331 | 3.5 | 10.4 | 0.00 | 0.01 | 0.01 | 50 | 1019.1 |
| 20260906211003 | 66 | 338 | 3.5 | 9.6 | 0.00 | 0.01 | 0.01 | 51 | 1019.0 |
| 20260906210712 | 66 | 347 | 3.5 | 9.6 | 0.00 | 0.01 | 0.01 | 51 | 1019.0 |
| 20260906210003 | 67 | 341 | 4.3 | 13.0 | 0.00 | 0.01 | 0.01 | 51 | 1018.9 |
| 20260906205712 | 67 | 345 | 5.2 | 13.0 | 0.00 | 0.01 | 0.01 | 50 | 1018.9 |
| 20260906205003 | 67 | 347 | 4.3 | 13.0 | 0.00 | 0.01 | 0.01 | 51 | 1018.9 |
| 20260906204503 | 67 | 347 | 3.5 | 11.3 | 0.00 | 0.01 | 0.01 | 51 | 1018.9 |
| 20260906204213 | 68 | 349 | 3.5 | 11.3 | 0.00 | 0.01 | 0.01 | 51 | 1018.8 |
| 20260906203503 | 68 | 359 | 4.3 | 8.7 | 0.00 | 0.01 | 0.01 | 49 | 1019.0 |
| 20260906203003 | 68 | 9 | 5.2 | 9.6 | 0.00 | 0.01 | 0.01 | 50 | 1019.0 |
| 20260906202712 | 68 | 8 | 5.2 | 9.6 | 0.00 | 0.01 | 0.01 | 50 | 1018.8 |
| 20260906202213 | 68 | 6 | 6.1 | 11.3 | 0.00 | 0.01 | 0.01 | 50 | 1018.9 |
| 20260906201503 | 69 | 354 | 4.3 | 11.3 | 0.00 | 0.01 | 0.01 | 49 | 1018.8 |
| 20260906201003 | 69 | 348 | 4.3 | 11.3 | 0.00 | 0.01 | 0.01 | 49 | 1018.8 |
| 20260906200503 | 70 | 352 | 4.3 | 9.6 | 0.00 | 0.01 | 0.01 | 50 | 1018.9 |
| 20260906200213 | 70 | 359 | 4.3 | 10.4 | 0.00 | 0.01 | 0.01 | 48 | 1018.8 |
| 20260906195503 | 70 | 6 | 4.3 | 10.4 | 0.00 | 0.01 | 0.01 | 50 | 1018.8 |
| 20260906195003 | 70 | 11 | 4.3 | 12.2 | 0.00 | 0.01 | 0.01 | 49 | 1018.8 |
| 20260906194503 | 70 | 5 | 5.2 | 12.2 | 0.00 | 0.01 | 0.01 | 49 | 1018.7 |
| 20260906194003 | 69 | 3 | 5.2 | 13.0 | 0.00 | 0.01 | 0.01 | 52 | 1018.7 |
| 20260906193503 | 70 | 5 | 4.3 | 13.0 | 0.00 | 0.01 | 0.01 | 51 | 1018.8 |
| 20260906193003 | 69 | 9 | 3.5 | 10.4 | 0.00 | 0.01 | 0.01 | 48 | 1018.7 |
| 20260906192503 | 69 | 12 | 3.5 | 10.4 | 0.00 | 0.01 | 0.01 | 51 | 1018.6 |
| 20260906192003 | 69 | 352 | 4.3 | 10.4 | 0.00 | 0.01 | 0.01 | 50 | 1018.6 |
| 20260906191503 | 69 | 360 | 4.3 | 10.4 | 0.00 | 0.01 | 0.01 | 47 | 1018.5 |
| 20260906191003 | 69 | 10 | 4.3 | 9.6 | 0.00 | 0.01 | 0.01 | 51 | 1018.4 |
| 20260906190714 | 69 | 6 | 4.3 | 9.6 | 0.00 | 0.01 | 0.01 | 49 | 1018.5 |
| 20260906190003 | 69 | 13 | 4.3 | 10.4 | 0.00 | 0.01 | 0.01 | 52 | 1018.5 |
| 20260906185503 | 68 | 18 | 3.5 | 10.4 | 0.00 | 0.01 | 0.01 | 53 | 1018.7 |
| 20260906185003 | 68 | 33 | 3.5 | 7.8 | 0.00 | 0.01 | 0.01 | 53 | 1018.6 |
| 20260906184503 | 68 | 29 | 3.5 | 7.8 | 0.00 | 0.01 | 0.01 | 52 | 1018.6 |
| 20260906184003 | 68 | 27 | 5.2 | 11.3 | 0.00 | 0.01 | 0.01 | 51 | 1018.7 |
| 20260906183714 | 68 | 27 | 5.2 | 11.3 | 0.00 | 0.01 | 0.01 | 51 | 1018.6 |
| 20260906183003 | 68 | 20 | 4.3 | 11.3 | 0.00 | 0.01 | 0.01 | 54 | 1018.7 |
| 20260906182503 | 68 | 14 | 3.5 | 9.6 | 0.00 | 0.01 | 0.01 | 52 | 1018.8 |
| 20260906182003 | 69 | 21 | 2.6 | 9.6 | 0.00 | 0.01 | 0.01 | 51 | 1018.7 |
| 20260906181503 | 69 | 26 | 4.3 | 11.3 | 0.00 | 0.01 | 0.01 | 52 | 1018.7 |
| 20260906181003 | 69 | 20 | 5.2 | 11.3 | 0.00 | 0.01 | 0.01 | 53 | 1018.7 |
| 20260906180503 | 69 | 17 | 4.3 | 10.4 | 0.00 | 0.01 | 0.01 | 52 | 1018.7 |
| 20260906180004 | 68 | 25 | 3.5 | 10.4 | 0.00 | 0.01 | 0.01 | 51 | 1018.8 |
| 20260906175503 | 68 | 40 | 5.2 | 10.4 | 0.00 | 0.01 | 0.01 | 52 | 1018.7 |
| 20260906175003 | 69 | 28 | 6.1 | 11.3 | 0.00 | 0.01 | 0.01 | 51 | 1018.7 |
| 20260906174713 | 69 | 11 | 5.2 | 11.3 | 0.00 | 0.01 | 0.01 | 53 | 1018.6 |
| 20260906174212 | 69 | 15 | 6.1 | 11.3 | 0.00 | 0.01 | 0.01 | 53 | 1018.7 |
| 20260906173503 | 68 | 14 | 5.2 | 11.3 | 0.00 | 0.01 | 0.01 | 53 | 1018.7 |
| 20260906173003 | 68 | 25 | 4.3 | 11.3 | 0.00 | 0.01 | 0.01 | 52 | 1018.7 |
| 20260906172503 | 69 | 20 | 4.3 | 12.2 | 0.00 | 0.01 | 0.01 | 53 | 1018.8 |
| 20260906172003 | 68 | 21 | 5.2 | 12.2 | 0.00 | 0.01 | 0.01 | 55 | 1018.7 |
| 20260906171503 | 68 | 13 | 4.3 | 10.4 | 0.00 | 0.01 | 0.01 | 54 | 1018.7 |
| 20260906171003 | 68 | 15 | 4.3 | 12.2 | 0.00 | 0.01 | 0.01 | 53 | 1018.8 |
| 20260906170713 | 69 | 19 | 4.3 | 12.2 | 0.00 | 0.01 | 0.01 | 53 | 1018.7 |
| 20260906170003 | 68 | 25 | 3.5 | 10.4 | 0.00 | 0.01 | 0.01 | 55 | 1018.8 |
| 20260906165503 | 68 | 9 | 4.3 | 10.4 | 0.00 | 0.01 | 0.01 | 56 | 1018.9 |
| 20260906165003 | 68 | 18 | 6.1 | 13.0 | 0.00 | 0.01 | 0.01 | 54 | 1018.8 |
| 20260906164503 | 69 | 23 | 6.1 | 13.0 | 0.00 | 0.01 | 0.01 | 55 | 1018.6 |
| 20260906164003 | 68 | 11 | 5.2 | 10.4 | 0.00 | 0.01 | 0.01 | 55 | 1018.6 |
| 20260906163713 | 68 | 5 | 5.2 | 10.4 | 0.00 | 0.01 | 0.01 | 55 | 1018.6 |
| 20260906163003 | 68 | 17 | 5.2 | 10.4 | 0.00 | 0.01 | 0.01 | 55 | 1018.6 |
| 20260906162713 | 68 | 18 | 4.3 | 10.4 | 0.00 | 0.01 | 0.01 | 55 | 1018.7 |
| 20260906162003 | 68 | 13 | 3.5 | 9.6 | 0.00 | 0.01 | 0.01 | 56 | 1018.7 |
| 20260906161503 | 68 | 9 | 2.6 | 8.7 | 0.00 | 0.01 | 0.01 | 57 | 1018.8 |
| 20260906161003 | 67 | 20 | 3.5 | 9.6 | 0.00 | 0.01 | 0.01 | 56 | 1018.7 |
| 20260906160503 | 67 | 8 | 5.2 | 11.3 | 0.00 | 0.01 | 0.01 | 58 | 1018.7 |
| 20260906160214 | 67 | 359 | 5.2 | 11.3 | 0.00 | 0.01 | 0.01 | 57 | 1018.7 |
| 20260906155503 | 67 | 3 | 4.3 | 13.0 | 0.00 | 0.01 | 0.01 | 57 | 1018.7 |
| 20260906155003 | 66 | 23 | 4.3 | 13.0 | 0.00 | 0.01 | 0.01 | 57 | 1018.9 |
| 20260906154713 | 66 | 21 | 4.3 | 11.3 | 0.00 | 0.01 | 0.01 | 58 | 1018.9 |
| 20260906154003 | 66 | 17 | 4.3 | 11.3 | 0.00 | 0.01 | 0.01 | 57 | 1019.0 |
| 20260906153503 | 66 | 15 | 4.3 | 11.3 | 0.00 | 0.01 | 0.01 | 58 | 1018.9 |
| 20260906153003 | 65 | 10 | 3.5 | 11.3 | 0.00 | 0.01 | 0.01 | 57 | 1019.0 |
| 20260906152503 | 64 | 6 | 3.5 | 9.6 | 0.00 | 0.01 | 0.01 | 57 | 1018.9 |
| 20260906152003 | 64 | 4 | 4.3 | 11.3 | 0.00 | 0.01 | 0.01 | 57 | 1019.0 |
| 20260906151503 | 64 | 10 | 4.3 | 11.3 | 0.00 | 0.01 | 0.01 | 57 | 1018.9 |
| 20260906151213 | 63 | 7 | 4.3 | 11.3 | 0.00 | 0.01 | 0.01 | 57 | 1018.9 |
| 20260906150503 | 63 | 360 | 4.3 | 11.3 | 0.00 | 0.01 | 0.01 | 56 | 1019.0 |
| 20260906150213 | 63 | 358 | 4.3 | 11.3 | 0.00 | 0.01 | 0.01 | 56 | 1018.9 |
| 20260906145503 | 63 | 6 | 3.5 | 10.4 | 0.00 | 0.01 | 0.01 | 54 | 1018.9 |
| 20260906145003 | 62 | 5 | 3.5 | 9.6 | 0.00 | 0.01 | 0.01 | 54 | 1018.8 |
| 20260906144714 | 62 | 8 | 3.5 | 10.4 | 0.00 | 0.01 | 0.01 | 54 | 1018.8 |
| 20260906144003 | 62 | 6 | 3.5 | 10.4 | 0.00 | 0.01 | 0.01 | 54 | 1018.8 |
| 20260906143503 | 62 | 2 | 2.6 | 7.8 | 0.00 | 0.01 | 0.01 | 54 | 1018.7 |
| 20260906143003 | 62 | 356 | 2.6 | 7.0 | 0.00 | 0.01 | 0.01 | 55 | 1018.8 |
| 20260906142503 | 62 | 356 | 2.6 | 8.7 | 0.00 | 0.01 | 0.01 | 54 | 1018.7 |
| 20260906142003 | 62 | 357 | 2.6 | 8.7 | 0.00 | 0.01 | 0.01 | 56 | 1018.7 |
| 20260906141503 | 62 | 353 | 2.6 | 7.0 | 0.00 | 0.01 | 0.01 | 56 | 1018.7 |
| 20260906141213 | 62 | 347 | 2.6 | 7.0 | 0.00 | 0.01 | 0.01 | 56 | 1018.7 |
| 20260906140503 | 61 | 349 | 3.5 | 7.0 | 0.01 | 0.01 | 0.01 | 56 | 1018.7 |
| 20260906140213 | 61 | 356 | 3.5 | 7.8 | 0.01 | 0.01 | 0.01 | 57 | 1018.6 |
| 20260906135503 | 61 | 357 | 3.5 | 9.6 | 0.01 | 0.01 | 0.01 | 57 | 1018.5 |
| 20260906135003 | 61 | 3 | 3.5 | 9.6 | 0.01 | 0.01 | 0.01 | 57 | 1018.5 |
| 20260906134503 | 61 | 15 | 3.5 | 10.4 | 0.01 | 0.01 | 0.01 | 57 | 1018.5 |
| 20260906134003 | 61 | 11 | 3.5 | 10.4 | 0.01 | 0.01 | 0.01 | 57 | 1018.5 |
| 20260906133503 | 61 | 2 | 3.5 | 11.3 | 0.01 | 0.01 | 0.01 | 57 | 1018.4 |
| 20260906133003 | 62 | 3 | 4.3 | 11.3 | 0.01 | 0.01 | 0.01 | 57 | 1018.4 |
| 20260906132503 | 62 | 2 | 4.3 | 11.3 | 0.01 | 0.01 | 0.01 | 58 | 1018.3 |
| 20260906132213 | 62 | 3 | 6.1 | 13.0 | 0.01 | 0.01 | 0.01 | 57 | 1018.4 |
| 20260906131503 | 62 | 12 | 4.3 | 13.0 | 0.01 | 0.01 | 0.01 | 57 | 1018.3 |
| 20260906131003 | 62 | 359 | 4.3 | 9.6 | 0.01 | 0.01 | 0.01 | 57 | 1018.2 |
| 20260906130503 | 62 | 1 | 4.3 | 10.4 | 0.00 | 0.00 | 0.00 | 57 | 1018.4 |
| 20260906130003 | 62 | 8 | 4.3 | 12.2 | 0.00 | 0.00 | 0.00 | 59 | 1018.3 |
| 20260906125503 | 62 | 8 | 4.3 | 12.2 | 0.00 | 0.00 | 0.00 | 59 | 1018.1 |
| 20260906125003 | 62 | 357 | 4.3 | 10.4 | 0.00 | 0.00 | 0.00 | 59 | 1018.1 |
| 20260906124503 | 62 | 7 | 5.2 | 11.3 | 0.00 | 0.00 | 0.00 | 59 | 1018.1 |
| 20260906124003 | 62 | 16 | 5.2 | 11.3 | 0.00 | 0.00 | 0.00 | 61 | 1018.0 |
| 20260906123503 | 62 | 9 | 3.5 | 8.7 | 0.00 | 0.00 | 0.00 | 62 | 1017.9 |
| 20260906123003 | 62 | 15 | 2.6 | 7.0 | 0.00 | 0.00 | 0.00 | 62 | 1017.9 |
| 20260906122503 | 62 | 12 | 2.6 | 7.0 | 0.00 | 0.00 | 0.00 | 62 | 1018.0 |
| 20260906122003 | 62 | 10 | 2.6 | 7.0 | 0.00 | 0.00 | 0.00 | 62 | 1018.1 |
| 20260906121713 | 62 | 3 | 2.6 | 7.0 | 0.00 | 0.00 | 0.00 | 62 | 1018.1 |
| 20260906121003 | 61 | 338 | 3.5 | 7.0 | 0.00 | 0.00 | 0.00 | 62 | 1017.9 |
| 20260906120503 | 61 | 322 | 3.5 | 8.7 | 0.00 | 0.00 | 0.00 | 62 | 1017.9 |
| 20260906120212 | 61 | 320 | 4.3 | 8.7 | 0.00 | 0.00 | 0.00 | 62 | 1017.7 |
| 20260906115503 | 61 | 314 | 3.5 | 7.8 | 0.00 | 0.00 | 0.00 | 62 | 1017.6 |
| 20260906115003 | 61 | 317 | 2.6 | 6.1 | 0.00 | 0.00 | 0.00 | 62 | 1017.7 |
| 20260906114503 | 61 | 308 | 2.6 | 9.6 | 0.00 | 0.00 | 0.00 | 62 | 1017.6 |
| 20260906114214 | 61 | 303 | 2.6 | 9.6 | 0.00 | 0.00 | 0.00 | 62 | 1017.6 |
| 20260906113503 | 60 | 306 | 2.6 | 7.0 | 0.00 | 0.00 | 0.00 | 62 | 1017.5 |
| 20260906113003 | 60 | 329 | 1.7 | 7.8 | 0.00 | 0.00 | 0.00 | 62 | 1017.4 |
| 20260906112503 | 60 | 353 | 1.7 | 7.8 | 0.00 | 0.00 | 0.00 | 61 | 1017.3 |
| 20260906112003 | 60 | 340 | 1.7 | 7.0 | 0.00 | 0.00 | 0.00 | 61 | 1017.3 |
| 20260906111503 | 60 | 317 | 1.7 | 7.0 | 0.00 | 0.00 | 0.00 | 61 | 1017.1 |
| 20260906111003 | 60 | 314 | 0.9 | 7.0 | 0.00 | 0.00 | 0.00 | 60 | 1017.1 |
| 20260906110503 | 60 | 29 | 0.0 | 2.6 | 0.00 | 0.00 | 0.00 | 60 | 1017.1 |
| 20260906110003 | 60 | 8 | 0.9 | 3.5 | 0.00 | 0.00 | 0.00 | 60 | 1017.1 |
| 20260906105503 | 60 | 1 | 1.7 | 3.5 | 0.00 | 0.00 | 0.00 | 60 | 1017.0 |
| 20260906105214 | 60 | 360 | 1.7 | 3.5 | 0.00 | 0.00 | 0.00 | 59 | 1017.0 |
| 20260906104503 | 60 | 355 | 0.9 | 3.5 | 0.00 | 0.00 | 0.00 | 59 | 1016.8 |
| 20260906104003 | 60 | 338 | 1.7 | 6.1 | 0.00 | 0.00 | 0.00 | 59 | 1016.9 |
| 20260906103503 | 60 | 328 | 2.6 | 7.0 | 0.00 | 0.00 | 0.00 | 59 | 1016.8 |
| 20260906103003 | 61 | 309 | 2.6 | 7.0 | 0.00 | 0.00 | 0.00 | 59 | 1016.7 |
| 20260906102503 | 61 | 303 | 3.5 | 7.8 | 0.00 | 0.00 | 0.00 | 59 | 1016.7 |
| 20260906102003 | 61 | 304 | 1.7 | 7.8 | 0.00 | 0.00 | 0.00 | 59 | 1016.7 |
| 20260906101713 | 61 | 303 | 1.7 | 4.3 | 0.00 | 0.00 | 0.00 | 59 | 1016.8 |
| 20260906101003 | 61 | 299 | 1.7 | 4.3 | 0.00 | 0.00 | 0.00 | 59 | 1016.7 |
| 20260906100503 | 60 | 291 | 1.7 | 5.2 | 0.00 | 0.00 | 0.00 | 59 | 1016.5 |
| 20260906100004 | 60 | 278 | 2.6 | 5.2 | 0.00 | 0.00 | 0.00 | 59 | 1016.5 |
| 20260906095503 | 60 | 284 | 2.6 | 7.0 | 0.00 | 0.00 | 0.00 | 59 | 1016.5 |
| 20260906095003 | 61 | 288 | 2.6 | 7.0 | 0.00 | 0.00 | 0.00 | 59 | 1016.6 |
| 20260906094503 | 60 | 287 | 1.7 | 5.2 | 0.00 | 0.00 | 0.00 | 59 | 1016.5 |
| 20260906094003 | 60 | 288 | 1.7 | 5.2 | 0.00 | 0.00 | 0.00 | 59 | 1016.4 |
| 20260906093503 | 60 | 284 | 1.7 | 5.2 | 0.00 | 0.00 | 0.00 | 59 | 1016.5 |
| 20260906093003 | 60 | 286 | 1.7 | 5.2 | 0.00 | 0.00 | 0.00 | 59 | 1016.4 |
| 20260906092503 | 60 | 279 | 1.7 | 5.2 | 0.00 | 0.00 | 0.00 | 58 | 1016.3 |
| 20260906092003 | 60 | 270 | 1.7 | 5.2 | 0.00 | 0.00 | 0.00 | 57 | 1016.4 |
| 20260906091503 | 60 | 266 | 1.7 | 3.5 | 0.00 | 0.00 | 0.00 | 57 | 1016.2 |
| 20260906091003 | 60 | 268 | 1.7 | 5.2 | 0.00 | 0.00 | 0.00 | 57 | 1016.2 |
| 20260906090503 | 60 | 273 | 1.7 | 5.2 | 0.00 | 0.00 | 0.00 | 57 | 1016.0 |
| 20260906090213 | 60 | 269 | 1.7 | 3.5 | 0.00 | 0.00 | 0.00 | 57 | 1016.1 |
| 20260906085503 | 60 | 272 | 1.7 | 5.2 | 0.00 | 0.00 | 0.00 | 57 | 1015.9 |
| 20260906085003 | 60 | 287 | 0.9 | 5.2 | 0.00 | 0.00 | 0.00 | 56 | 1016.0 |
| 20260906084503 | 60 | 305 | 0.0 | 2.6 | 0.00 | 0.00 | 0.00 | 56 | 1015.9 |
| 20260906084003 | 60 | 304 | 0.0 | 2.6 | 0.00 | 0.00 | 0.00 | 56 | 1015.8 |
| 20260906083503 | 60 | 293 | 0.0 | 2.6 | 0.00 | 0.00 | 0.00 | 56 | 1015.8 |
| 20260906083213 | 61 | 293 | 0.0 | 2.6 | 0.00 | 0.00 | 0.00 | 56 | 1015.7 |
| 20260906082503 | 61 | 292 | 0.0 | 0.9 | 0.00 | 0.00 | 0.00 | 56 | 1015.8 |
| 20260906082003 | 61 | 293 | 0.0 | 2.6 | 0.00 | 0.00 | 0.00 | 56 | 1015.8 |
| 20260906081503 | 61 | 295 | 0.9 | 2.6 | 0.00 | 0.00 | 0.00 | 56 | 1015.8 |
| 20260906081003 | 61 | 290 | 0.9 | 2.6 | 0.00 | 0.00 | 0.00 | 56 | 1015.8 |
| 20260906080503 | 62 | 271 | 0.9 | 2.6 | 0.00 | 0.00 | 0.00 | 56 | 1015.7 |
| 20260906080003 | 62 | 254 | 0.0 | 2.6 | 0.00 | 0.00 | 0.00 | 56 | 1015.7 |
| 20260906075714 | 62 | 252 | 0.0 | 2.6 | 0.00 | 0.00 | 0.00 | 56 | 1015.8 |
| 20260906075003 | 62 | 0 | 0.0 | 0.0 | 0.00 | 0.00 | 0.00 | 56 | 1015.8 |
| 20260906074503 | 62 | 0 | 0.0 | 0.0 | 0.00 | 0.00 | 0.00 | 56 | 1015.8 |
| 20260906074003 | 62 | 332 | 0.0 | 2.6 | 0.00 | 0.00 | 0.00 | 56 | 1015.7 |
| 20260906073503 | 62 | 330 | 0.9 | 2.6 | 0.00 | 0.00 | 0.00 | 56 | 1015.7 |
| 20260906073003 | 62 | 330 | 0.9 | 3.5 | 0.00 | 0.00 | 0.00 | 56 | 1015.7 |
| 20260906072713 | 62 | 332 | 0.9 | 3.5 | 0.00 | 0.00 | 0.00 | 56 | 1015.7 |
| 20260906072003 | 62 | 329 | 0.0 | 2.6 | 0.00 | 0.00 | 0.00 | 56 | 1015.8 |
| 20260906071503 | 62 | 331 | 0.9 | 2.6 | 0.00 | 0.00 | 0.00 | 56 | 1015.6 |
| 20260906071003 | 62 | 320 | 1.7 | 5.2 | 0.00 | 0.00 | 0.00 | 56 | 1015.7 |
| 20260906070503 | 62 | 314 | 1.7 | 5.2 | 0.00 | 0.00 | 0.00 | 56 | 1015.7 |
| 20260906070003 | 62 | 319 | 1.7 | 5.2 | 0.00 | 0.00 | 0.00 | 56 | 1015.6 |
| 20260906065503 | 62 | 316 | 1.7 | 4.3 | 0.00 | 0.00 | 0.00 | 56 | 1015.7 |
| 20260906065003 | 62 | 290 | 0.9 | 5.2 | 0.00 | 0.00 | 0.00 | 56 | 1015.7 |
| 20260906064503 | 62 | 285 | 0.9 | 5.2 | 0.00 | 0.00 | 0.00 | 56 | 1015.7 |
| 20260906064003 | 62 | 327 | 0.9 | 5.2 | 0.00 | 0.00 | 0.00 | 56 | 1015.7 |
| 20260906063713 | 62 | 6 | 0.9 | 2.6 | 0.00 | 0.00 | 0.00 | 55 | 1015.7 |
| 20260906063003 | 63 | 317 | 0.9 | 2.6 | 0.00 | 0.00 | 0.00 | 55 | 1015.7 |
| 20260906062503 | 63 | 323 | 0.9 | 4.3 | 0.00 | 0.00 | 0.00 | 55 | 1015.8 |
| 20260906062003 | 63 | 334 | 1.7 | 4.3 | 0.00 | 0.00 | 0.00 | 55 | 1015.8 |
| 20260906061503 | 63 | 328 | 1.7 | 7.8 | 0.00 | 0.00 | 0.00 | 55 | 1015.8 |
| 20260906061003 | 63 | 333 | 2.6 | 7.8 | 0.00 | 0.00 | 0.00 | 55 | 1015.7 |
| 20260906060503 | 63 | 337 | 1.7 | 7.0 | 0.00 | 0.00 | 0.00 | 56 | 1015.8 |
| 20260906060003 | 63 | 336 | 0.9 | 4.3 | 0.00 | 0.00 | 0.00 | 56 | 1015.9 |
| 20260906055503 | 63 | 348 | 1.7 | 7.0 | 0.00 | 0.00 | 0.00 | 56 | 1015.7 |
| 20260906055003 | 62 | 337 | 2.6 | 7.0 | 0.00 | 0.00 | 0.00 | 56 | 1015.8 |
| 20260906054503 | 62 | 313 | 1.7 | 6.1 | 0.00 | 0.00 | 0.00 | 56 | 1015.8 |
| 20260906054003 | 62 | 289 | 1.7 | 5.2 | 0.00 | 0.00 | 0.00 | 56 | 1015.8 |
| 20260906053503 | 62 | 245 | 0.0 | 3.5 | 0.00 | 0.00 | 0.00 | 56 | 1016.0 |
| 20260906053003 | 62 | 52 | 0.9 | 4.3 | 0.00 | 0.00 | 0.00 | 55 | 1016.0 |
| 20260906052503 | 62 | 42 | 1.7 | 4.3 | 0.00 | 0.00 | 0.00 | 56 | 1016.0 |
| 20260906052003 | 62 | 277 | 0.0 | 2.6 | 0.00 | 0.00 | 0.00 | 56 | 1016.0 |
| 20260906051503 | 61 | 269 | 0.0 | 0.9 | 0.00 | 0.00 | 0.00 | 56 | 1015.9 |
| 20260906051003 | 61 | 270 | 0.0 | 2.6 | 0.00 | 0.00 | 0.00 | 56 | 1015.8 |
| 20260906050503 | 61 | 270 | 0.9 | 2.6 | 0.00 | 0.00 | 0.00 | 56 | 1015.9 |
| 20260906050003 | 61 | 270 | 0.9 | 1.7 | 0.00 | 0.00 | 0.00 | 56 | 1016.0 |
| 20260906045503 | 61 | 270 | 0.9 | 1.7 | 0.00 | 0.00 | 0.00 | 57 | 1015.9 |
| 20260906045003 | 61 | 270 | 0.0 | 1.7 | 0.00 | 0.00 | 0.00 | 57 | 1016.0 |
| 20260906044503 | 61 | 0 | 0.0 | 0.0 | 0.00 | 0.00 | 0.00 | 57 | 1015.9 |
| 20260906044003 | 60 | 0 | 0.0 | 0.0 | 0.00 | 0.00 | 0.00 | 57 | 1015.9 |
| 20260906043503 | 60 | 0 | 0.0 | 0.0 | 0.00 | 0.00 | 0.00 | 57 | 1015.9 |
| 20260906043003 | 60 | 0 | 0.0 | 0.0 | 0.00 | 0.00 | 0.00 | 57 | 1016.0 |
| 20260906042503 | 60 | 0 | 0.0 | 0.0 | 0.00 | 0.00 | 0.00 | 57 | 1015.9 |
| 20260906042003 | 60 | 0 | 0.0 | 0.0 | 0.00 | 0.00 | 0.00 | 57 | 1015.8 |
| 20260906041712 | 60 | 0 | 0.0 | 0.0 | 0.00 | 0.00 | 0.00 | 57 | 1015.7 |
| 20260906041003 | 60 | 0 | 0.0 | 0.0 | 0.00 | 0.00 | 0.00 | 57 | 1015.7 |
| 20260906040503 | 60 | 0 | 0.0 | 0.0 | 0.00 | 0.00 | 0.00 | 57 | 1015.8 |
| 20260906040003 | 60 | 0 | 0.0 | 0.0 | 0.00 | 0.00 | 0.00 | 57 | 1015.8 |
| 20260906035503 | 60 | 269 | 0.0 | 1.7 | 0.00 | 0.00 | 0.00 | 57 | 1015.8 |
| 20260906035003 | 60 | 269 | 0.9 | 2.6 | 0.00 | 0.00 | 0.00 | 57 | 1015.7 |
| 20260906034503 | 60 | 269 | 1.7 | 2.6 | 0.00 | 0.00 | 0.00 | 58 | 1015.8 |
| 20260906034003 | 60 | 270 | 1.7 | 2.6 | 0.00 | 0.00 | 0.00 | 58 | 1015.7 |
| 20260906033503 | 60 | 271 | 1.7 | 2.6 | 0.00 | 0.00 | 0.00 | 58 | 1015.7 |
| 20260906033003 | 60 | 272 | 1.7 | 2.6 | 0.00 | 0.00 | 0.00 | 58 | 1015.6 |
| 20260906032714 | 60 | 272 | 1.7 | 2.6 | 0.00 | 0.00 | 0.00 | 58 | 1015.6 |
| 20260906032003 | 60 | 273 | 1.7 | 2.6 | 0.00 | 0.00 | 0.00 | 58 | 1015.6 |
| 20260906031503 | 60 | 280 | 1.7 | 3.5 | 0.00 | 0.00 | 0.00 | 58 | 1015.7 |
| 20260906031213 | 60 | 284 | 1.7 | 3.5 | 0.00 | 0.00 | 0.00 | 58 | 1015.7 |
| 20260906030503 | 60 | 290 | 1.7 | 2.6 | 0.00 | 0.00 | 0.00 | 58 | 1015.6 |
| 20260906030003 | 60 | 290 | 1.7 | 2.6 | 0.00 | 0.00 | 0.00 | 58 | 1015.6 |
| 20260906025503 | 60 | 287 | 1.7 | 2.6 | 0.00 | 0.00 | 0.00 | 58 | 1015.6 |
| 20260906025213 | 60 | 279 | 1.7 | 2.6 | 0.00 | 0.00 | 0.00 | 58 | 1015.7 |
| 20260906024503 | 61 | 265 | 0.9 | 2.6 | 0.00 | 0.00 | 0.00 | 58 | 1015.6 |
| 20260906024003 | 61 | 265 | 1.7 | 2.6 | 0.00 | 0.00 | 0.00 | 58 | 1015.4 |
| 20260906023714 | 61 | 265 | 1.7 | 2.6 | 0.00 | 0.00 | 0.00 | 58 | 1015.5 |
| 20260906023003 | 61 | 271 | 1.7 | 3.5 | 0.00 | 0.00 | 0.00 | 58 | 1015.4 |
| 20260906022503 | 61 | 273 | 2.6 | 3.5 | 0.00 | 0.00 | 0.00 | 58 | 1015.4 |
| 20260906022003 | 61 | 274 | 2.6 | 3.5 | 0.00 | 0.00 | 0.00 | 58 | 1015.5 |
| 20260906021503 | 61 | 290 | 2.6 | 3.5 | 0.00 | 0.00 | 0.00 | 58 | 1015.5 |
| 20260906021212 | 61 | 306 | 1.7 | 3.5 | 0.00 | 0.00 | 0.00 | 57 | 1015.5 |
| 20260906020503 | 62 | 315 | 1.7 | 4.3 | 0.00 | 0.00 | 0.00 | 57 | 1015.4 |
| 20260906020003 | 62 | 318 | 1.7 | 4.3 | 0.00 | 0.00 | 0.00 | 57 | 1015.2 |
| 20260906015713 | 62 | 319 | 1.7 | 4.3 | 0.00 | 0.00 | 0.00 | 57 | 1015.2 |
| 20260906015004 | 62 | 302 | 2.6 | 5.2 | 0.00 | 0.00 | 0.00 | 57 | 1015.2 |
| 20260906014713 | 62 | 295 | 2.6 | 5.2 | 0.00 | 0.00 | 0.00 | 58 | 1015.2 |
| 20260906014003 | 62 | 287 | 1.7 | 7.8 | 0.00 | 0.00 | 0.00 | 58 | 1015.2 |
| 20260906013713 | 62 | 289 | 2.6 | 7.8 | 0.00 | 0.00 | 0.00 | 58 | 1015.2 |
| 20260906013003 | 62 | 306 | 1.7 | 6.1 | 0.00 | 0.00 | 0.00 | 58 | 1015.3 |
| 20260906012713 | 62 | 306 | 1.7 | 6.1 | 0.00 | 0.00 | 0.00 | 58 | 1015.2 |
| 20260906012003 | 62 | 290 | 0.0 | 3.5 | 0.00 | 0.00 | 0.00 | 59 | 1015.2 |
| 20260906011713 | 62 | 349 | 0.0 | 0.9 | 0.00 | 0.00 | 0.00 | 59 | 1015.2 |
| 20260906011003 | 62 | 350 | 0.9 | 1.7 | 0.00 | 0.00 | 0.00 | 59 | 1015.3 |
| 20260906010713 | 62 | 350 | 0.9 | 1.7 | 0.00 | 0.00 | 0.00 | 59 | 1015.3 |
| 20260906010003 | 62 | 333 | 0.9 | 2.6 | 0.00 | 0.00 | 0.00 | 59 | 1015.2 |
| 20260906005503 | 62 | 313 | 1.7 | 3.5 | 0.00 | 0.00 | 0.00 | 59 | 1015.1 |
| 20260906005214 | 62 | 318 | 0.9 | 3.5 | 0.00 | 0.00 | 0.00 | 59 | 1015.1 |
| 20260906004503 | 62 | 342 | 0.9 | 3.5 | 0.00 | 0.00 | 0.00 | 59 | 1015.1 |
| 20260906004003 | 62 | 20 | 0.9 | 3.5 | 0.00 | 0.00 | 0.00 | 60 | 1015.0 |
| 20260906003503 | 62 | 38 | 0.9 | 3.5 | 0.00 | 0.00 | 0.00 | 60 | 1015.0 |
| 20260906003003 | 62 | 304 | 0.0 | 3.5 | 0.00 | 0.00 | 0.00 | 60 | 1014.9 |
| 20260906002503 | 62 | 269 | 0.9 | 3.5 | 0.00 | 0.00 | 0.00 | 60 | 1014.9 |
| 20260906002003 | 62 | 266 | 0.9 | 3.5 | 0.00 | 0.00 | 0.00 | 60 | 1014.9 |
| 20260906001503 | 62 | 261 | 1.7 | 6.1 | 0.00 | 0.00 | 0.00 | 60 | 1014.9 |
| 20260906001003 | 62 | 262 | 2.6 | 6.1 | 0.00 | 0.00 | 0.00 | 60 | 1014.8 |
| 20260906000713 | 62 | 264 | 2.6 | 6.1 | 0.00 | 0.00 | 0.00 | 61 | 1014.8 |
| 20260906000003 | 62 | 270 | 0.9 | 3.5 | 0.00 | 0.00 | 0.00 | 62 | 1014.8 |
| 20260905235503 | 63 | 283 | 0.9 | 2.6 | 0.00 | 0.00 | 0.00 | 62 | 1014.8 |
| 20260905235003 | 63 | 290 | 1.7 | 3.5 | 0.00 | 0.00 | 0.00 | 63 | 1014.9 |
| 20260905234503 | 63 | 299 | 1.7 | 3.5 | 0.00 | 0.00 | 0.00 | 63 | 1014.9 |
| 20260905234214 | 63 | 292 | 1.7 | 3.5 | 0.00 | 0.00 | 0.00 | 63 | 1014.9 |
| 20260905233503 | 64 | 263 | 1.7 | 3.5 | 0.00 | 0.00 | 0.00 | 63 | 1014.9 |
| 20260905233003 | 64 | 256 | 1.7 | 3.5 | 0.00 | 0.00 | 0.00 | 63 | 1015.0 |
| 20260905232712 | 64 | 268 | 1.7 | 3.5 | 0.00 | 0.00 | 0.00 | 63 | 1015.0 |
| 20260905232003 | 64 | 298 | 1.7 | 3.5 | 0.00 | 0.00 | 0.00 | 62 | 1014.9 |
| 20260905231503 | 65 | 298 | 1.7 | 3.5 | 0.00 | 0.00 | 0.00 | 62 | 1014.9 |
| 20260905231003 | 65 | 304 | 1.7 | 6.1 | 0.00 | 0.00 | 0.00 | 61 | 1015.0 |
| 20260905230503 | 65 | 309 | 1.7 | 7.0 | 0.00 | 0.00 | 0.00 | 61 | 1014.9 |
| 20260905230003 | 65 | 310 | 1.7 | 7.0 | 0.00 | 0.00 | 0.00 | 61 | 1014.9 |
| 20260905225503 | 65 | 313 | 1.7 | 3.5 | 0.00 | 0.00 | 0.00 | 60 | 1014.9 |
| 20260905225003 | 66 | 311 | 0.9 | 3.5 | 0.00 | 0.00 | 0.00 | 60 | 1014.9 |
| 20260905224503 | 66 | 308 | 0.9 | 4.3 | 0.00 | 0.00 | 0.00 | 60 | 1015.0 |
| 20260905224003 | 66 | 310 | 1.7 | 4.3 | 0.00 | 0.00 | 0.00 | 59 | 1014.9 |
| 20260905223503 | 66 | 298 | 1.7 | 3.5 | 0.00 | 0.00 | 0.00 | 59 | 1014.9 |
| 20260905223003 | 67 | 300 | 1.7 | 3.5 | 0.00 | 0.00 | 0.00 | 58 | 1014.8 |
| 20260905222714 | 67 | 299 | 1.7 | 6.1 | 0.00 | 0.00 | 0.00 | 58 | 1014.7 |
| 20260905222003 | 67 | 278 | 1.7 | 6.1 | 0.00 | 0.00 | 0.00 | 57 | 1014.8 |
| 20260905221503 | 67 | 297 | 2.6 | 6.1 | 0.00 | 0.00 | 0.00 | 57 | 1014.7 |
| 20260905221003 | 68 | 316 | 1.7 | 6.1 | 0.00 | 0.00 | 0.00 | 56 | 1014.7 |
| 20260905220503 | 68 | 322 | 1.7 | 7.8 | 0.00 | 0.00 | 0.00 | 56 | 1014.6 |
| 20260905220003 | 68 | 324 | 2.6 | 7.8 | 0.00 | 0.00 | 0.00 | 55 | 1014.5 |